Year,Month,Day,Hour,Minute,Value (Times are PST for temperature in C)
2021,03,29,00,00,4.90
2021,03,29,00,01,4.80
2021,03,29,00,02,4.80
2021,03,29,00,03,4.80
2021,03,29,00,04,4.80
2021,03,29,00,05,4.80
2021,03,29,00,06,4.80
2021,03,29,00,07,4.80
2021,03,29,00,08,4.80
2021,03,29,00,09,4.80
2021,03,29,00,10,4.80
2021,03,29,00,11,4.80
2021,03,29,00,12,4.80
2021,03,29,00,13,4.80
2021,03,29,00,14,4.80
2021,03,29,00,15,4.80
2021,03,29,00,16,4.80
2021,03,29,00,17,4.80
2021,03,29,00,18,4.80
2021,03,29,00,19,4.80
2021,03,29,00,20,4.80
2021,03,29,00,21,4.80
2021,03,29,00,22,4.80
2021,03,29,00,23,4.80
2021,03,29,00,24,4.80
2021,03,29,00,25,4.80
2021,03,29,00,26,4.80
2021,03,29,00,27,4.70
2021,03,29,00,28,4.60
2021,03,29,00,29,4.50
2021,03,29,00,30,4.50
2021,03,29,00,31,4.40
2021,03,29,00,32,4.40
2021,03,29,00,33,4.40
2021,03,29,00,34,4.40
2021,03,29,00,35,4.40
2021,03,29,00,36,4.40
2021,03,29,00,37,4.50
2021,03,29,00,38,4.50
2021,03,29,00,39,4.60
2021,03,29,00,40,4.60
2021,03,29,00,41,4.60
2021,03,29,00,42,4.60
2021,03,29,00,43,4.60
2021,03,29,00,44,4.60
2021,03,29,00,45,4.60
2021,03,29,00,46,4.60
2021,03,29,00,47,4.60
2021,03,29,00,48,4.60
2021,03,29,00,49,4.50
2021,03,29,00,50,4.50
2021,03,29,00,51,4.50
2021,03,29,00,52,4.50
2021,03,29,00,53,4.40
2021,03,29,00,54,4.50
2021,03,29,00,55,4.50
2021,03,29,00,56,4.50
2021,03,29,00,57,4.50
2021,03,29,00,58,4.50
2021,03,29,00,59,4.60
2021,03,29,01,00,4.60
2021,03,29,01,01,4.70
2021,03,29,01,02,4.70
2021,03,29,01,03,4.70
2021,03,29,01,04,4.70
2021,03,29,01,05,4.70
2021,03,29,01,06,4.80
2021,03,29,01,07,4.80
2021,03,29,01,08,4.80
2021,03,29,01,09,4.80
2021,03,29,01,10,4.80
2021,03,29,01,11,4.80
2021,03,29,01,12,4.80
2021,03,29,01,13,4.80
2021,03,29,01,14,4.80
2021,03,29,01,15,4.80
2021,03,29,01,16,4.80
2021,03,29,01,17,4.80
2021,03,29,01,18,4.80
2021,03,29,01,19,4.80
2021,03,29,01,20,4.80
2021,03,29,01,21,4.70
2021,03,29,01,22,4.70
2021,03,29,01,23,4.70
2021,03,29,01,24,4.70
2021,03,29,01,25,4.70
2021,03,29,01,26,4.70
2021,03,29,01,27,4.70
2021,03,29,01,28,4.70
2021,03,29,01,29,4.70
2021,03,29,01,30,4.70
2021,03,29,01,31,4.70
2021,03,29,01,32,4.70
2021,03,29,01,33,4.70
2021,03,29,01,34,4.70
2021,03,29,01,35,4.70
2021,03,29,01,36,4.70
2021,03,29,01,37,4.70
2021,03,29,01,38,4.70
2021,03,29,01,39,4.60
2021,03,29,01,40,4.60
2021,03,29,01,41,4.60
2021,03,29,01,42,4.70
2021,03,29,01,43,4.60
2021,03,29,01,44,4.60
2021,03,29,01,45,4.60
2021,03,29,01,46,4.60
2021,03,29,01,47,4.60
2021,03,29,01,48,4.70
2021,03,29,01,49,4.70
2021,03,29,01,50,4.70
2021,03,29,01,51,4.70
2021,03,29,01,52,4.70
2021,03,29,01,53,4.70
2021,03,29,01,54,4.70
2021,03,29,01,55,4.70
2021,03,29,01,56,4.70
2021,03,29,01,57,4.70
2021,03,29,01,58,4.60
2021,03,29,01,59,4.60
2021,03,29,02,00,4.60
2021,03,29,02,01,4.60
2021,03,29,02,02,4.60
2021,03,29,02,03,4.60
2021,03,29,02,04,4.60
2021,03,29,02,05,4.60
2021,03,29,02,06,4.60
2021,03,29,02,07,4.60
2021,03,29,02,08,4.60
2021,03,29,02,09,4.60
2021,03,29,02,10,4.60
2021,03,29,02,11,4.60
2021,03,29,02,12,4.60
2021,03,29,02,13,4.60
2021,03,29,02,14,4.60
2021,03,29,02,15,4.60
2021,03,29,02,16,4.60
2021,03,29,02,17,4.60
2021,03,29,02,18,4.60
2021,03,29,02,19,4.60
2021,03,29,02,20,4.60
2021,03,29,02,21,4.50
2021,03,29,02,22,4.50
2021,03,29,02,23,4.50
2021,03,29,02,24,4.50
2021,03,29,02,25,4.50
2021,03,29,02,26,4.50
2021,03,29,02,27,4.40
2021,03,29,02,28,4.40
2021,03,29,02,29,4.40
2021,03,29,02,30,4.40
2021,03,29,02,31,4.40
2021,03,29,02,32,4.30
2021,03,29,02,33,4.30
2021,03,29,02,34,4.30
2021,03,29,02,35,4.30
2021,03,29,02,36,4.30
2021,03,29,02,37,4.30
2021,03,29,02,38,4.40
2021,03,29,02,39,4.40
2021,03,29,02,40,4.40
2021,03,29,02,41,4.40
2021,03,29,02,42,4.40
2021,03,29,02,43,4.30
2021,03,29,02,44,4.30
2021,03,29,02,45,4.30
2021,03,29,02,46,4.30
2021,03,29,02,47,4.30
2021,03,29,02,48,4.30
2021,03,29,02,49,4.20
2021,03,29,02,50,4.20
2021,03,29,02,51,4.20
2021,03,29,02,52,4.20
2021,03,29,02,53,4.20
2021,03,29,02,54,4.20
2021,03,29,02,55,4.20
2021,03,29,02,56,4.20
2021,03,29,02,57,4.20
2021,03,29,02,58,4.30
2021,03,29,02,59,4.30
2021,03,29,03,00,4.30
2021,03,29,03,01,4.30
2021,03,29,03,02,4.30
2021,03,29,03,03,4.30
2021,03,29,03,04,4.30
2021,03,29,03,05,4.30
2021,03,29,03,06,4.30
2021,03,29,03,07,4.30
2021,03,29,03,08,4.30
2021,03,29,03,09,4.30
2021,03,29,03,10,4.30
2021,03,29,03,11,4.30
2021,03,29,03,12,4.30
2021,03,29,03,13,4.30
2021,03,29,03,14,4.40
2021,03,29,03,15,4.40
2021,03,29,03,16,4.40
2021,03,29,03,17,4.40
2021,03,29,03,18,4.40
2021,03,29,03,19,4.40
2021,03,29,03,20,4.40
2021,03,29,03,21,4.50
2021,03,29,03,22,4.50
2021,03,29,03,23,4.50
2021,03,29,03,24,4.60
2021,03,29,03,25,4.60
2021,03,29,03,26,4.60
2021,03,29,03,27,4.60
2021,03,29,03,28,4.60
2021,03,29,03,29,4.70
2021,03,29,03,30,4.70
2021,03,29,03,31,4.70
2021,03,29,03,32,4.70
2021,03,29,03,33,4.70
2021,03,29,03,34,4.70
2021,03,29,03,35,4.60
2021,03,29,03,36,4.60
2021,03,29,03,37,4.60
2021,03,29,03,38,4.60
2021,03,29,03,39,4.50
2021,03,29,03,40,4.50
2021,03,29,03,41,4.40
2021,03,29,03,42,4.30
2021,03,29,03,43,4.30
2021,03,29,03,44,4.20
2021,03,29,03,45,4.10
2021,03,29,03,46,4.00
2021,03,29,03,47,3.90
2021,03,29,03,48,3.80
2021,03,29,03,49,3.70
2021,03,29,03,50,3.60
2021,03,29,03,51,3.50
2021,03,29,03,52,3.40
2021,03,29,03,53,3.40
2021,03,29,03,54,3.30
2021,03,29,03,55,3.20
2021,03,29,03,56,3.20
2021,03,29,03,57,3.10
2021,03,29,03,58,3.00
2021,03,29,03,59,3.00
2021,03,29,04,00,3.00
2021,03,29,04,01,2.90
2021,03,29,04,02,2.90
2021,03,29,04,03,2.90
2021,03,29,04,04,2.90
2021,03,29,04,05,2.90
2021,03,29,04,06,2.90
2021,03,29,04,07,2.80
2021,03,29,04,08,2.80
2021,03,29,04,09,2.80
2021,03,29,04,10,2.80
2021,03,29,04,11,2.80
2021,03,29,04,12,2.80
2021,03,29,04,13,2.80
2021,03,29,04,14,2.80
2021,03,29,04,15,2.80
2021,03,29,04,16,2.80
2021,03,29,04,17,2.80
2021,03,29,04,18,2.80
2021,03,29,04,19,2.80
2021,03,29,04,20,2.80
2021,03,29,04,21,2.80
2021,03,29,04,22,2.80
2021,03,29,04,23,2.80
2021,03,29,04,24,2.80
2021,03,29,04,25,2.80
2021,03,29,04,26,2.80
2021,03,29,04,27,2.80
2021,03,29,04,28,2.70
2021,03,29,04,29,2.70
2021,03,29,04,30,2.70
2021,03,29,04,31,2.70
2021,03,29,04,32,2.60
2021,03,29,04,33,2.60
2021,03,29,04,34,2.50
2021,03,29,04,35,2.40
2021,03,29,04,36,2.40
2021,03,29,04,37,2.50
2021,03,29,04,38,2.60
2021,03,29,04,39,2.80
2021,03,29,04,40,2.80
2021,03,29,04,41,2.80
2021,03,29,04,42,2.80
2021,03,29,04,43,2.80
2021,03,29,04,44,2.80
2021,03,29,04,45,2.80
2021,03,29,04,46,2.80
2021,03,29,04,47,2.80
2021,03,29,04,48,2.70
2021,03,29,04,49,2.60
2021,03,29,04,50,2.60
2021,03,29,04,51,2.60
2021,03,29,04,52,2.70
2021,03,29,04,53,2.70
2021,03,29,04,54,2.70
2021,03,29,04,55,2.80
2021,03,29,04,56,2.80
2021,03,29,04,57,2.80
2021,03,29,04,58,2.90
2021,03,29,04,59,2.80
2021,03,29,05,00,2.80
2021,03,29,05,01,2.80
2021,03,29,05,02,2.80
2021,03,29,05,03,2.80
2021,03,29,05,04,2.80
2021,03,29,05,05,2.90
2021,03,29,05,06,2.90
2021,03,29,05,07,2.90
2021,03,29,05,08,2.90
2021,03,29,05,09,2.90
2021,03,29,05,10,2.90
2021,03,29,05,11,2.90
2021,03,29,05,12,2.80
2021,03,29,05,13,2.70
2021,03,29,05,14,2.70
2021,03,29,05,15,2.60
2021,03,29,05,16,2.60
2021,03,29,05,17,2.60
2021,03,29,05,18,2.60
2021,03,29,05,19,2.60
2021,03,29,05,20,2.60
2021,03,29,05,21,2.70
2021,03,29,05,22,2.70
2021,03,29,05,23,2.60
2021,03,29,05,24,2.60
2021,03,29,05,25,2.60
2021,03,29,05,26,2.60
2021,03,29,05,27,2.50
2021,03,29,05,28,2.50
2021,03,29,05,29,2.50
2021,03,29,05,30,2.50
2021,03,29,05,31,2.40
2021,03,29,05,32,2.40
2021,03,29,05,33,2.40
2021,03,29,05,34,2.40
2021,03,29,05,35,2.30
2021,03,29,05,36,2.30
2021,03,29,05,37,2.30
2021,03,29,05,38,2.30
2021,03,29,05,39,2.20
2021,03,29,05,40,2.20
2021,03,29,05,41,2.10
2021,03,29,05,42,2.10
2021,03,29,05,43,2.10
2021,03,29,05,44,2.20
2021,03,29,05,45,2.20
2021,03,29,05,46,2.20
2021,03,29,05,47,2.30
2021,03,29,05,48,2.30
2021,03,29,05,49,2.30
2021,03,29,05,50,2.30
2021,03,29,05,51,2.30
2021,03,29,05,52,2.30
2021,03,29,05,53,2.30
2021,03,29,05,54,2.40
2021,03,29,05,55,2.40
2021,03,29,05,56,2.50
2021,03,29,05,57,2.50
2021,03,29,05,58,2.40
2021,03,29,05,59,2.40
2021,03,29,06,00,2.30
2021,03,29,06,01,2.30
2021,03,29,06,02,2.30
2021,03,29,06,03,2.20
2021,03,29,06,04,2.20
2021,03,29,06,05,2.20
2021,03,29,06,06,2.20
2021,03,29,06,07,2.20
2021,03,29,06,08,2.20
2021,03,29,06,09,2.20
2021,03,29,06,10,2.30
2021,03,29,06,11,2.30
2021,03,29,06,12,2.30
2021,03,29,06,13,2.30
2021,03,29,06,14,2.30
2021,03,29,06,15,2.20
2021,03,29,06,16,2.20
2021,03,29,06,17,2.20
2021,03,29,06,18,2.20
2021,03,29,06,19,2.20
2021,03,29,06,20,2.20
2021,03,29,06,21,2.20
2021,03,29,06,22,2.20
2021,03,29,06,23,2.20
2021,03,29,06,24,2.20
2021,03,29,06,25,2.10
2021,03,29,06,26,2.10
2021,03,29,06,27,2.10
2021,03,29,06,28,2.10
2021,03,29,06,29,2.00
2021,03,29,06,30,2.00
2021,03,29,06,31,1.90
2021,03,29,06,32,1.90
2021,03,29,06,33,1.90
2021,03,29,06,34,1.90
2021,03,29,06,35,1.90
2021,03,29,06,36,1.90
2021,03,29,06,37,1.90
2021,03,29,06,38,1.80
2021,03,29,06,39,1.70
2021,03,29,06,40,1.70
2021,03,29,06,41,1.70
2021,03,29,06,42,1.70
2021,03,29,06,43,1.70
2021,03,29,06,44,1.70
2021,03,29,06,45,1.70
2021,03,29,06,46,1.70
2021,03,29,06,47,1.70
2021,03,29,06,48,1.70
2021,03,29,06,49,1.70
2021,03,29,06,50,1.70
2021,03,29,06,51,1.70
2021,03,29,06,52,1.70
2021,03,29,06,53,1.70
2021,03,29,06,54,1.70
2021,03,29,06,55,1.70
2021,03,29,06,56,1.70
2021,03,29,06,57,1.70
2021,03,29,06,58,1.70
2021,03,29,06,59,1.70
2021,03,29,07,00,1.70
2021,03,29,07,01,1.70
2021,03,29,07,02,1.70
2021,03,29,07,03,1.70
2021,03,29,07,04,1.70
2021,03,29,07,05,1.70
2021,03,29,07,06,1.70
2021,03,29,07,07,1.60
2021,03,29,07,08,1.60
2021,03,29,07,09,1.50
2021,03,29,07,10,1.50
2021,03,29,07,11,1.50
2021,03,29,07,12,1.40
2021,03,29,07,13,1.40
2021,03,29,07,14,1.40
2021,03,29,07,15,1.40
2021,03,29,07,16,1.40
2021,03,29,07,17,1.40
2021,03,29,07,18,1.40
2021,03,29,07,19,1.40
2021,03,29,07,20,1.40
2021,03,29,07,21,1.50
2021,03,29,07,22,1.50
2021,03,29,07,23,1.50
2021,03,29,07,24,1.50
2021,03,29,07,25,1.60
2021,03,29,07,26,1.60
2021,03,29,07,27,1.70
2021,03,29,07,28,1.80
2021,03,29,07,29,1.90
2021,03,29,07,30,2.00
2021,03,29,07,31,2.10
2021,03,29,07,32,2.20
2021,03,29,07,33,2.30
2021,03,29,07,34,2.40
2021,03,29,07,35,2.50
2021,03,29,07,36,2.60
2021,03,29,07,37,2.70
2021,03,29,07,38,2.80
2021,03,29,07,39,2.80
2021,03,29,07,40,3.00
2021,03,29,07,41,3.00
2021,03,29,07,42,3.20
2021,03,29,07,43,3.30
2021,03,29,07,44,3.40
2021,03,29,07,45,3.50
2021,03,29,07,46,3.70
2021,03,29,07,47,3.80
2021,03,29,07,48,3.90
2021,03,29,07,49,4.00
2021,03,29,07,50,4.00
2021,03,29,07,51,4.10
2021,03,29,07,52,4.00
2021,03,29,07,53,4.10
2021,03,29,07,54,4.10
2021,03,29,07,55,4.10
2021,03,29,07,56,4.20
2021,03,29,07,57,4.20
2021,03,29,07,58,4.20
2021,03,29,07,59,4.30
2021,03,29,08,00,4.40
2021,03,29,08,01,4.50
2021,03,29,08,02,4.50
2021,03,29,08,03,4.60
2021,03,29,08,04,4.70
2021,03,29,08,05,4.70
2021,03,29,08,06,4.80
2021,03,29,08,07,4.80
2021,03,29,08,08,4.90
2021,03,29,08,09,4.90
2021,03,29,08,10,5.00
2021,03,29,08,11,5.00
2021,03,29,08,12,5.10
2021,03,29,08,13,5.10
2021,03,29,08,14,5.10
2021,03,29,08,15,5.10
2021,03,29,08,16,5.20
2021,03,29,08,17,5.20
2021,03,29,08,18,5.20
2021,03,29,08,19,5.20
2021,03,29,08,20,5.30
2021,03,29,08,21,5.30
2021,03,29,08,22,5.30
2021,03,29,08,23,5.30
2021,03,29,08,24,5.40
2021,03,29,08,25,5.40
2021,03,29,08,26,5.40
2021,03,29,08,27,5.50
2021,03,29,08,28,5.50
2021,03,29,08,29,5.60
2021,03,29,08,30,5.60
2021,03,29,08,31,5.60
2021,03,29,08,32,5.70
2021,03,29,08,33,5.70
2021,03,29,08,34,5.70
2021,03,29,08,35,5.70
2021,03,29,08,36,5.70
2021,03,29,08,37,5.70
2021,03,29,08,38,5.70
2021,03,29,08,39,5.70
2021,03,29,08,40,5.70
2021,03,29,08,41,5.80
2021,03,29,08,42,5.80
2021,03,29,08,43,5.80
2021,03,29,08,44,5.80
2021,03,29,08,45,5.80
2021,03,29,08,46,5.80
2021,03,29,08,47,5.80
2021,03,29,08,48,5.80
2021,03,29,08,49,5.90
2021,03,29,08,50,5.90
2021,03,29,08,51,5.90
2021,03,29,08,52,5.90
2021,03,29,08,53,6.00
2021,03,29,08,54,6.00
2021,03,29,08,55,6.00
2021,03,29,08,56,6.00
2021,03,29,08,57,6.10
2021,03,29,08,58,6.10
2021,03,29,08,59,6.10
2021,03,29,09,00,6.10
2021,03,29,09,01,6.10
2021,03,29,09,02,6.10
2021,03,29,09,03,6.00
2021,03,29,09,04,6.00
2021,03,29,09,05,6.00
2021,03,29,09,06,6.00
2021,03,29,09,07,6.00
2021,03,29,09,08,6.00
2021,03,29,09,09,6.10
2021,03,29,09,10,6.10
2021,03,29,09,11,6.10
2021,03,29,09,12,6.10
2021,03,29,09,13,6.10
2021,03,29,09,14,6.10
2021,03,29,09,15,6.10
2021,03,29,09,16,6.20
2021,03,29,09,17,6.20
2021,03,29,09,18,6.20
2021,03,29,09,19,6.30
2021,03,29,09,20,6.30
2021,03,29,09,21,6.30
2021,03,29,09,22,6.40
2021,03,29,09,23,6.40
2021,03,29,09,24,6.50
2021,03,29,09,25,6.50
2021,03,29,09,26,6.50
2021,03,29,09,27,6.50
2021,03,29,09,28,6.50
2021,03,29,09,29,6.50
2021,03,29,09,30,6.50
2021,03,29,09,31,6.50
2021,03,29,09,32,6.50
2021,03,29,09,33,6.60
2021,03,29,09,34,6.60
2021,03,29,09,35,6.60
2021,03,29,09,36,6.70
2021,03,29,09,37,6.70
2021,03,29,09,38,6.70
2021,03,29,09,39,6.70
2021,03,29,09,40,6.70
2021,03,29,09,41,6.80
2021,03,29,09,42,6.80
2021,03,29,09,43,6.80
2021,03,29,09,44,6.80
2021,03,29,09,45,6.90
2021,03,29,09,46,6.90
2021,03,29,09,47,6.90
2021,03,29,09,48,6.90
2021,03,29,09,49,6.90
2021,03,29,09,50,6.90
2021,03,29,09,51,6.90
2021,03,29,09,52,6.90
2021,03,29,09,53,7.00
2021,03,29,09,54,7.00
2021,03,29,09,55,7.00
2021,03,29,09,56,7.10
2021,03,29,09,57,7.10
2021,03,29,09,58,7.10
2021,03,29,09,59,7.20
2021,03,29,10,00,7.20
2021,03,29,10,01,7.20
2021,03,29,10,02,7.20
2021,03,29,10,03,7.20
2021,03,29,10,04,7.20
2021,03,29,10,05,7.20
2021,03,29,10,06,7.30
2021,03,29,10,07,7.30
2021,03,29,10,08,7.40
2021,03,29,10,09,7.50
2021,03,29,10,10,7.60
2021,03,29,10,11,7.70
2021,03,29,10,12,7.70
2021,03,29,10,13,7.80
2021,03,29,10,14,7.90
2021,03,29,10,15,7.90
2021,03,29,10,16,7.90
2021,03,29,10,17,7.80
2021,03,29,10,18,7.80
2021,03,29,10,19,7.90
2021,03,29,10,20,7.90
2021,03,29,10,21,7.90
2021,03,29,10,22,8.00
2021,03,29,10,23,8.00
2021,03,29,10,24,8.00
2021,03,29,10,25,8.00
2021,03,29,10,26,7.90
2021,03,29,10,27,7.90
2021,03,29,10,28,7.90
2021,03,29,10,29,8.00
2021,03,29,10,30,8.00
2021,03,29,10,31,8.00
2021,03,29,10,32,7.90
2021,03,29,10,33,7.90
2021,03,29,10,34,7.90
2021,03,29,10,35,7.90
2021,03,29,10,36,7.90
2021,03,29,10,37,7.90
2021,03,29,10,38,7.80
2021,03,29,10,39,7.80
2021,03,29,10,40,7.80
2021,03,29,10,41,7.80
2021,03,29,10,42,7.80
2021,03,29,10,43,7.80
2021,03,29,10,44,7.80
2021,03,29,10,45,7.80
2021,03,29,10,46,7.90
2021,03,29,10,47,7.90
2021,03,29,10,48,8.00
2021,03,29,10,49,8.10
2021,03,29,10,50,8.10
2021,03,29,10,51,8.10
2021,03,29,10,52,8.20
2021,03,29,10,53,8.30
2021,03,29,10,54,8.40
2021,03,29,10,55,8.50
2021,03,29,10,56,8.60
2021,03,29,10,57,8.70
2021,03,29,10,58,8.80
2021,03,29,10,59,8.80
2021,03,29,11,00,8.80
2021,03,29,11,01,8.90
2021,03,29,11,02,8.90
2021,03,29,11,03,8.80
2021,03,29,11,04,8.80
2021,03,29,11,05,8.70
2021,03,29,11,06,8.70
2021,03,29,11,07,8.60
2021,03,29,11,08,8.50
2021,03,29,11,09,8.40
2021,03,29,11,10,8.30
2021,03,29,11,11,8.20
2021,03,29,11,12,8.20
2021,03,29,11,13,8.10
2021,03,29,11,14,8.10
2021,03,29,11,15,8.00
2021,03,29,11,16,7.90
2021,03,29,11,17,7.80
2021,03,29,11,18,7.80
2021,03,29,11,19,7.70
2021,03,29,11,20,7.60
2021,03,29,11,21,7.60
2021,03,29,11,22,7.60
2021,03,29,11,23,7.50
2021,03,29,11,24,7.50
2021,03,29,11,25,7.50
2021,03,29,11,26,7.50
2021,03,29,11,27,7.40
2021,03,29,11,28,7.40
2021,03,29,11,29,7.40
2021,03,29,11,30,7.40
2021,03,29,11,31,7.40
2021,03,29,11,32,7.50
2021,03,29,11,33,7.50
2021,03,29,11,34,7.50
2021,03,29,11,35,7.50
2021,03,29,11,36,7.50
2021,03,29,11,37,7.40
2021,03,29,11,38,7.50
2021,03,29,11,39,7.40
2021,03,29,11,40,7.50
2021,03,29,11,41,7.50
2021,03,29,11,42,7.50
2021,03,29,11,43,7.50
2021,03,29,11,44,7.50
2021,03,29,11,45,7.50
2021,03,29,11,46,7.40
2021,03,29,11,47,7.40
2021,03,29,11,48,7.40
2021,03,29,11,49,7.40
2021,03,29,11,50,7.40
2021,03,29,11,51,7.40
2021,03,29,11,52,7.40
2021,03,29,11,53,7.50
2021,03,29,11,54,7.50
2021,03,29,11,55,7.60
2021,03,29,11,56,7.60
2021,03,29,11,57,7.60
2021,03,29,11,58,7.60
2021,03,29,11,59,7.60
2021,03,29,12,00,7.60
2021,03,29,12,01,7.60
2021,03,29,12,02,7.70
2021,03,29,12,03,7.70
2021,03,29,12,04,7.70
2021,03,29,12,05,7.70
2021,03,29,12,06,7.70
2021,03,29,12,07,7.80
2021,03,29,12,08,7.80
2021,03,29,12,09,7.90
2021,03,29,12,10,7.90
2021,03,29,12,11,7.90
2021,03,29,12,12,7.90
2021,03,29,12,13,7.90
2021,03,29,12,14,7.90
2021,03,29,12,15,7.90
2021,03,29,12,16,7.90
2021,03,29,12,17,7.90
2021,03,29,12,18,7.90
2021,03,29,12,19,7.90
2021,03,29,12,20,7.80
2021,03,29,12,21,7.80
2021,03,29,12,22,7.80
2021,03,29,12,23,7.80
2021,03,29,12,24,7.90
2021,03,29,12,25,7.90
2021,03,29,12,26,7.90
2021,03,29,12,27,8.00
2021,03,29,12,28,8.00
2021,03,29,12,29,8.00
2021,03,29,12,30,8.00
2021,03,29,12,31,8.10
2021,03,29,12,32,8.10
2021,03,29,12,33,8.00
2021,03,29,12,34,8.00
2021,03,29,12,35,7.90
2021,03,29,12,36,7.90
2021,03,29,12,37,7.90
2021,03,29,12,38,7.90
2021,03,29,12,39,7.90
2021,03,29,12,40,7.90
2021,03,29,12,41,7.90
2021,03,29,12,42,7.90
2021,03,29,12,43,7.90
2021,03,29,12,44,7.90
2021,03,29,12,45,7.90
2021,03,29,12,46,8.00
2021,03,29,12,47,8.00
2021,03,29,12,48,8.10
2021,03,29,12,49,8.10
2021,03,29,12,50,8.10
2021,03,29,12,51,8.10
2021,03,29,12,52,8.00
2021,03,29,12,53,8.00
2021,03,29,12,54,8.00
2021,03,29,12,55,8.00
2021,03,29,12,56,8.10
2021,03,29,12,57,8.10
2021,03,29,12,58,8.10
2021,03,29,12,59,8.10
2021,03,29,13,00,8.10
2021,03,29,13,01,8.10
2021,03,29,13,02,8.10
2021,03,29,13,03,8.10
2021,03,29,13,04,8.00
2021,03,29,13,05,8.00
2021,03,29,13,06,8.10
2021,03,29,13,07,8.00
2021,03,29,13,08,8.00
2021,03,29,13,09,8.00
2021,03,29,13,10,8.00
2021,03,29,13,11,8.00
2021,03,29,13,12,8.00
2021,03,29,13,13,8.00
2021,03,29,13,14,8.00
2021,03,29,13,15,8.10
2021,03,29,13,16,8.10
2021,03,29,13,17,8.10
2021,03,29,13,18,8.10
2021,03,29,13,19,8.10
2021,03,29,13,20,8.00
2021,03,29,13,21,8.00
2021,03,29,13,22,8.00
2021,03,29,13,23,8.00
2021,03,29,13,24,8.00
2021,03,29,13,25,8.10
2021,03,29,13,26,8.10
2021,03,29,13,27,8.10
2021,03,29,13,28,8.20
2021,03,29,13,29,8.20
2021,03,29,13,30,8.10
2021,03,29,13,31,8.10
2021,03,29,13,32,8.10
2021,03,29,13,33,8.10
2021,03,29,13,34,8.10
2021,03,29,13,35,8.10
2021,03,29,13,36,8.10
2021,03,29,13,37,8.10
2021,03,29,13,38,8.10
2021,03,29,13,39,8.10
2021,03,29,13,40,8.10
2021,03,29,13,41,8.10
2021,03,29,13,42,8.10
2021,03,29,13,43,8.10
2021,03,29,13,44,8.10
2021,03,29,13,45,8.10
2021,03,29,13,46,8.20
2021,03,29,13,47,8.20
2021,03,29,13,48,8.30
2021,03,29,13,49,8.40
2021,03,29,13,50,8.40
2021,03,29,13,51,8.50
2021,03,29,13,52,8.50
2021,03,29,13,53,8.50
2021,03,29,13,54,8.50
2021,03,29,13,55,8.60
2021,03,29,13,56,8.50
2021,03,29,13,57,8.50
2021,03,29,13,58,8.40
2021,03,29,13,59,8.40
2021,03,29,14,00,8.30
2021,03,29,14,01,8.30
2021,03,29,14,02,8.20
2021,03,29,14,03,8.20
2021,03,29,14,04,8.20
2021,03,29,14,05,8.20
2021,03,29,14,06,8.20
2021,03,29,14,07,8.20
2021,03,29,14,08,8.20
2021,03,29,14,09,8.30
2021,03,29,14,10,8.30
2021,03,29,14,11,8.20
2021,03,29,14,12,8.20
2021,03,29,14,13,8.20
2021,03,29,14,14,8.20
2021,03,29,14,15,8.30
2021,03,29,14,16,8.30
2021,03,29,14,17,8.20
2021,03,29,14,18,8.20
2021,03,29,14,19,8.20
2021,03,29,14,20,8.20
2021,03,29,14,21,8.20
2021,03,29,14,22,8.20
2021,03,29,14,23,8.20
2021,03,29,14,24,8.20
2021,03,29,14,25,8.20
2021,03,29,14,26,8.20
2021,03,29,14,27,8.30
2021,03,29,14,28,8.30
2021,03,29,14,29,8.30
2021,03,29,14,30,8.20
2021,03,29,14,31,8.20
2021,03,29,14,32,8.10
2021,03,29,14,33,8.20
2021,03,29,14,34,8.20
2021,03,29,14,35,8.20
2021,03,29,14,36,8.20
2021,03,29,14,37,8.20
2021,03,29,14,38,8.10
2021,03,29,14,39,8.10
2021,03,29,14,40,8.10
2021,03,29,14,41,8.10
2021,03,29,14,42,8.10
2021,03,29,14,43,8.10
2021,03,29,14,44,8.10
2021,03,29,14,45,8.20
2021,03,29,14,46,8.20
2021,03,29,14,47,8.20
2021,03,29,14,48,8.20
2021,03,29,14,49,8.20
2021,03,29,14,50,8.20
2021,03,29,14,51,8.20
2021,03,29,14,52,8.20
2021,03,29,14,53,8.20
2021,03,29,14,54,8.10
2021,03,29,14,55,8.10
2021,03,29,14,56,8.20
2021,03,29,14,57,8.20
2021,03,29,14,58,8.20
2021,03,29,14,59,8.20
2021,03,29,15,00,8.20
2021,03,29,15,01,8.30
2021,03,29,15,02,8.30
2021,03,29,15,03,8.30
2021,03,29,15,04,8.30
2021,03,29,15,05,8.30
2021,03,29,15,06,8.30
2021,03,29,15,07,8.30
2021,03,29,15,08,8.30
2021,03,29,15,09,8.30
2021,03,29,15,10,8.30
2021,03,29,15,11,8.30
2021,03,29,15,12,8.30
2021,03,29,15,13,8.30
2021,03,29,15,14,8.30
2021,03,29,15,15,8.30
2021,03,29,15,16,8.30
2021,03,29,15,17,8.30
2021,03,29,15,18,8.40
2021,03,29,15,19,8.40
2021,03,29,15,20,8.40
2021,03,29,15,21,8.40
2021,03,29,15,22,8.40
2021,03,29,15,23,8.50
2021,03,29,15,24,8.50
2021,03,29,15,25,8.50
2021,03,29,15,26,8.50
2021,03,29,15,27,8.60
2021,03,29,15,28,8.60
2021,03,29,15,29,8.50
2021,03,29,15,30,8.50
2021,03,29,15,31,8.50
2021,03,29,15,32,8.40
2021,03,29,15,33,8.40
2021,03,29,15,34,8.50
2021,03,29,15,35,8.50
2021,03,29,15,36,8.60
2021,03,29,15,37,8.60
2021,03,29,15,38,8.60
2021,03,29,15,39,8.60
2021,03,29,15,40,8.60
2021,03,29,15,41,8.60
2021,03,29,15,42,8.60
2021,03,29,15,43,8.60
2021,03,29,15,44,8.60
2021,03,29,15,45,8.60
2021,03,29,15,46,8.60
2021,03,29,15,47,8.60
2021,03,29,15,48,8.60
2021,03,29,15,49,8.60
2021,03,29,15,50,8.70
2021,03,29,15,51,8.70
2021,03,29,15,52,8.70
2021,03,29,15,53,8.70
2021,03,29,15,54,8.70
2021,03,29,15,55,8.70
2021,03,29,15,56,8.70
2021,03,29,15,57,8.70
2021,03,29,15,58,8.70
2021,03,29,15,59,8.70
2021,03,29,16,00,8.70
2021,03,29,16,01,8.70
2021,03,29,16,02,8.80
2021,03,29,16,03,8.80
2021,03,29,16,04,8.80
2021,03,29,16,05,8.80
2021,03,29,16,06,8.90
2021,03,29,16,07,8.90
2021,03,29,16,08,8.90
2021,03,29,16,09,9.00
2021,03,29,16,10,9.00
2021,03,29,16,11,9.10
2021,03,29,16,12,9.10
2021,03,29,16,13,9.10
2021,03,29,16,14,9.10
2021,03,29,16,15,9.10
2021,03,29,16,16,9.10
2021,03,29,16,17,9.10
2021,03,29,16,18,9.10
2021,03,29,16,19,9.10
2021,03,29,16,20,9.10
2021,03,29,16,21,9.20
2021,03,29,16,22,9.10
2021,03,29,16,23,9.10
2021,03,29,16,24,9.00
2021,03,29,16,25,8.90
2021,03,29,16,26,8.90
2021,03,29,16,27,8.80
2021,03,29,16,28,8.80
2021,03,29,16,29,8.80
2021,03,29,16,30,8.80
2021,03,29,16,31,8.70
2021,03,29,16,32,8.70
2021,03,29,16,33,8.70
2021,03,29,16,34,8.70
2021,03,29,16,35,8.70
2021,03,29,16,36,8.70
2021,03,29,16,37,8.80
2021,03,29,16,38,8.80
2021,03,29,16,39,8.80
2021,03,29,16,40,8.80
2021,03,29,16,41,8.80
2021,03,29,16,42,8.90
2021,03,29,16,43,8.90
2021,03,29,16,44,8.90
2021,03,29,16,45,8.90
2021,03,29,16,46,8.90
2021,03,29,16,47,8.90
2021,03,29,16,48,8.90
2021,03,29,16,49,8.90
2021,03,29,16,50,8.90
2021,03,29,16,51,8.90
2021,03,29,16,52,8.90
2021,03,29,16,53,8.80
2021,03,29,16,54,8.80
2021,03,29,16,55,8.80
2021,03,29,16,56,8.80
2021,03,29,16,57,8.80
2021,03,29,16,58,8.80
2021,03,29,16,59,8.90
2021,03,29,17,00,8.90
2021,03,29,17,01,8.90
2021,03,29,17,02,9.00
2021,03,29,17,03,9.00
2021,03,29,17,04,9.10
2021,03,29,17,05,9.10
2021,03,29,17,06,9.10
2021,03,29,17,07,9.10
2021,03,29,17,08,9.10
2021,03,29,17,09,9.10
2021,03,29,17,10,9.10
2021,03,29,17,11,9.10
2021,03,29,17,12,9.10
2021,03,29,17,13,9.10
2021,03,29,17,14,9.10
2021,03,29,17,15,9.00
2021,03,29,17,16,9.00
2021,03,29,17,17,9.00
2021,03,29,17,18,8.90
2021,03,29,17,19,8.90
2021,03,29,17,20,8.90
2021,03,29,17,21,8.90
2021,03,29,17,22,9.00
2021,03,29,17,23,9.00
2021,03,29,17,24,9.00
2021,03,29,17,25,9.00
2021,03,29,17,26,9.10
2021,03,29,17,27,9.10
2021,03,29,17,28,9.20
2021,03,29,17,29,9.30
2021,03,29,17,30,9.40
2021,03,29,17,31,9.50
2021,03,29,17,32,9.50
2021,03,29,17,33,9.60
2021,03,29,17,34,9.70
2021,03,29,17,35,9.70
2021,03,29,17,36,9.70
2021,03,29,17,37,9.70
2021,03,29,17,38,9.80
2021,03,29,17,39,9.80
2021,03,29,17,40,9.80
2021,03,29,17,41,9.90
2021,03,29,17,42,10.00
2021,03,29,17,43,10.00
2021,03,29,17,44,10.00
2021,03,29,17,45,10.00
2021,03,29,17,46,10.00
2021,03,29,17,47,9.90
2021,03,29,17,48,9.90
2021,03,29,17,49,9.90
2021,03,29,17,50,9.80
2021,03,29,17,51,9.70
2021,03,29,17,52,9.70
2021,03,29,17,53,9.70
2021,03,29,17,54,9.60
2021,03,29,17,55,9.50
2021,03,29,17,56,9.50
2021,03,29,17,57,9.50
2021,03,29,17,58,9.50
2021,03,29,17,59,9.50
2021,03,29,18,00,9.60
2021,03,29,18,01,9.70
2021,03,29,18,02,9.70
2021,03,29,18,03,9.70
2021,03,29,18,04,9.70
2021,03,29,18,05,9.70
2021,03,29,18,06,9.70